Location: Chateh
(58.6667°N, 118.6000°W)
Time: 11:26:18
(UTC+00:00)

PCSat - Pass Details

Date: 13 December 2023
Orbit: 784 x 791 km, 67.0° (Epoch: 01 March)

Event Time Altitude Azimuth Distance (km) Brightness Sun altitude
Exits shadow 11:46:41 30° 45° (NE) 1,380 11.1 -35.3°
Drops below altitude 10° 11:49:24 10° 48° (NE) 2,365 12.6 -35.0°
Sets 11:51:49 0° 49° (NE) 3,298 13.6 -34.7°
